Weather Roundup
Issued by NWS

Home | Current Version | Previous Version | Graphics & Text | Print | Product List | Glossary Off
Versions: 1 2 3 4 5 6 7 8 9 10 11 12 13 14 15 16 17 18 19 20 21 22 23 24 25 26 27 28 29 30 31 32 33 34 35 36 37 38 39 40 41 42 43 44 45 46 47 48 49 50

000
NZUS93 KARX 272359
HRRWXR

CURRENT HOURLY OBSERVATIONS ACROSS
MUCH OF THE UPPER MISSISSIPPI VALLEY
NATIONAL WEATHER SERVICE LA CROSSE WI
700 PM CDT WED MAY 27 2015


...SOUTHEAST MINNESOTA...


CITY           SKY/WX    TMP DP  RH WIND       PRES   REMARKS
ROCHESTER      SUNNY     78  58  49 W7        30.01S
ROCHESTER/MAYO FAIR      80  54  40 W7        30.00S
WINONA         SUNNY     79  55  44 W3        29.98S
AUSTIN         SUNNY     79  54  41 SW7       30.00F
ALBERT LEA     SUNNY     81  48  32 SW3       30.00S
DODGE CENTER   SUNNY     81  54  39 W7        30.00F
PRESTON        SUNNY     76  58  52 W5        30.02S
OWATONNA       SUNNY     81  52  36 W6        29.99S
FARIBAULT      SUNNY     81  55  41 SW3       29.99S
$$

...ELSEWHERE IN MINNESOTA...


CITY           SKY/WX    TMP DP  RH WIND       PRES   REMARKS
MINNEAPOLIS    MOSUNNY   82  52  35 W7        29.95F
INTNL FALLS    SUNNY     72  45  37 N8        29.97R
DULUTH         MOSUNNY   79  49  34 N5        29.94R
RED WING       SUNNY     82  52  34 W8        29.96R
REDWOOD FALLS  MOSUNNY   83  47  28 CALM      29.96S
MANKATO        SUNNY     82  52  34 W5        29.98S
WORTHINGTON    CLOUDY    81  48  32 CALM      30.00F
FAIRMONT       MOSUNNY   84  43  23 CALM      29.99F
$$

...SOUTHWEST WISCONSIN...


CITY           SKY/WX    TMP DP  RH WIND       PRES   REMARKS
LA CROSSE      SUNNY     80  60  50 SW6       29.98S
PRAIRIE DU CHI SUNNY     78  55  44 W6        30.01S
BOSCOBEL       SUNNY     78  58  49 SW6       30.01F
LONE ROCK      NOT AVBL
PLATTEVILLE    SUNNY     76  58  52 W7        30.04S
FORT MC COY    SUNNY     78  55  45 SW6       30.00S
VIROQUA        FAIR      76  58  54 SW8G16    30.03S
WIS DELLS      SUNNY     74  57  55 SW7       30.02S
$$

...ELSEWHERE IN WISCONSIN...


CITY           SKY/WX    TMP DP  RH WIND       PRES   REMARKS
MILWAUKEE      SUNNY     67  55  65 SE8       30.03S
MADISON        SUNNY     75  55  49 CALM      30.02S
GREEN BAY      SUNNY     76  60  57 W10       29.98R
EAU CLAIRE     NOT AVBL
BLACK RVR FLS  FAIR      79  56  44 W7        29.98S
MEDFORD        MOSUNNY   71  59  66 SW3       30.00R
WAUSAU         SUNNY     73  59  61 W8        29.97R
WIS RAPIDS     SUNNY     76  56  49 W7        30.00R
MARSHFIELD     SUNNY     74  58  57 W9        29.99R
RICE LAKE      SUNNY     80  54  41 SW8       29.97S
$$

...NORTHEAST IOWA...


CITY           SKY/WX    TMP DP  RH WIND       PRES   REMARKS
DECORAH        SUNNY     79  55  44 VRB5      30.01S
MASON CITY     SUNNY     80  54  40 SW7       30.02F
CHARLES CITY   SUNNY     81  54  39 SW6       30.02F
OELWEIN        SUNNY     79  57  47 W8        30.04S
$$

...ELSEWHERE IN IOWA...


CITY           SKY/WX    TMP DP  RH WIND       PRES   REMARKS
DES MOINES     MOSUNNY   80  54  40 SW8       30.03F
IOWA CITY      SUNNY     78  55  44 SW7       30.06S
FORT DODGE     SUNNY     79  55  44 S9        30.03S
$$

...NORTHERN ILLINOIS...


CITY           SKY/WX    TMP DP  RH WIND       PRES   REMARKS
CHICAGO-OHARE  SUNNY     72  56  57 W5        30.04R
CHICAGO-MIDWAY MOSUNNY   75  54  47 NW8       30.04S
MOLINE         SUNNY     77  56  48 W7        30.06R
ROCKFORD       MOSUNNY   75  55  49 W7        30.06S
PEORIA         SUNNY     80  55  42 VRB3      30.06S
$$

NOTE: "FAIR" INDICATES FEW OR NO CLOUDS BELOW 12,000 FEET WITH NO
SIGNIFICANT WEATHER AND/OR OBSTRUCTIONS TO VISIBILITY. WIND
SPEEDS ARE IN MILES-PER-HOUR.



USA.gov is the U.S. government's official web portal to all federal, state and local government web resources and services.